OIKQ  Dayrestan Airport

Add Bookmark

Iran

Status
Operational
Latitude Longitude
26° 45' 16" N 55° 54' 8" E
26.754601 55.902401
Local (DST + 5) UTC (GMT + 4)
Oct 25, 2014 03:17 Oct 24, 2014 23:47
Sunrise-Sunset Local UTC
Begin Civil Twilight 05:26 01:56
Sunrise 05:50 02:20
Sunset 05:10 13:40
End Civil Twilight 05:34 14:04

Current Weather

METAR Observed VFR
OIKQ 242100Z 00000KT CAVOK 23/17 Q1010 Fri, Oct 24, 2014 @ 21:00 UTC
(2 Hours, 47 Minutes ago)
Visual Flight Rules
Wind Visibility Clouds Conditions
Calm 10 km or more
  • Clear skies
  • No significant weather
Temperatures Readings Precipitation
Current Temp 23°C (73°F)
Dewpoint 17°C (63°F)
Humidity 69%
Altimeter 29.82"Hg
Sea Level Pressure 1010mb
Field Elevation 39.37'
None Recorded

Additional weather within a 92.6km radius of OIKQ

Map ICAO Location
OIKB 69.8km N (042°)

24 Hour Weather History

Loading
-

24 Hour Weather Graphs

Loading
-

CheckWX.com is intended as a tool to help pilots better visualize weather data. It is not intended as a substitute for an official weather briefing obtained from a Flight Service Station. CheckWX.com does not meet the FAA requirements for an official pre-flight weather briefing. Therefore, it's important that pilots still call and obtain an official FSS pre-flight weather briefing.